FENGYUN 1C DEB, 33656

Orbit data source: Space-Track

FENGYUN 1C DEB, 33656 is space debris in SSO originally from a launch on Mon, 10 May 1999 UTC launched from the Taiyaun Space Center, China (TSC). Fengyun 1C debris stems from the Chinese weather satellite Fengyun-1C, which was intentionally destroyed by a Chinese anti-satellite missile in 2007. This event dramatically increased the amount of space debris, with thousands of trackable fragments posing hazards to satellites and human spaceflight. The Fengyun 1C debris cloud has become a focal point in discussions about space sustainability and the need for international regulations to prevent the creation of new debris.

Loading next visibility...
Identifier
33656, 1999-025DER
Orbit
SSO
Country
Flag of CNCN / PRC
Related business
Manufacturer
Unknown
Mission
Spacecraft
Bus & Motor
Unknown
Mass
Unknown
Launch date (UTC)
1999-05-10 (27 years ago)
Launch vehicle
Unknown
Launch site
Taiyaun Space Center, China (TSC)
Object type
Payload
Rocket body
Debris
Shape & HBR
Unknown shape, 0.1 m
Radar Cross Section
Small (<0.1 m²)

Expand to show TLE details & history
Last TLE update: 1 week ago

TLE from 1 week ago
0 FENGYUN 1C DEB
1 33656U 99025DER 26200.22011676  .00000330  00000-0  15784-3 0  9997
2 33656  98.5900 192.8813 0090755 115.5529 245.5066 14.23115509658167
Epoch: 2026-07-19T05:16Z
TLE epoch observation values (Epoch: 2026-07-19T05:16:58.088Z)
Latitude
-0.00002°
Longitude
176.61763°
Altitude
845.316 km
Speed
7.416 km/s
True Right ascension
12h 51m 31s
True Declination
0° 00' 00"
Sunlit
Object was in daylight at epoch
Visualization orbit readout
Latitude
Unknown
Longitude
Unknown
Altitude
Unknown
Speed
Unknown
Apparent Right ascension
Unknown
Apparent Declination
Unknown
Sunlit
N/A
Visualization observer readout
Local Sidereal Time
02:02:24
Azimuth
Unknown
Elevation
Unknown
Doppler factor
Unknown
Orbital elements
Apogee altitude
877.238 km
Perigee altitude
746.73 km
Semi-major axis
7,190.121 km
Eccentricity
0.00908
Inclination
98.59°
RAAN
192.8813°
Arg. of periapsis
115.5529°
True anomaly
244.56469°
Mean anomaly
245.5066°
Eccentric anomaly
245.0352°
Mean motion
3.55991 °/min
Orbital period
101.13 mins
BSTAR
0.00015784
Loading maneuver chart data...
Computing Atmospheric mass density...
Loading historical data...
Loading historical data...
Loading historical data...
Loading historical data...
Loading historical data...
Loading historical data...
Loading historical data...

Documentation

Showing up to 5 results
|